Location: *
(49.5549°S, 175.6516°W)
Time: 16:15:04
(UTC+00:00)

Daily predictions for brighter satellites

Satellite Brightness Start Highest point End
(mag) Time Altitude Azimuth Time Altitude Azimuth Time Altitude Azimuth
USA 59 Rocket 3.8 13:08:24 21° E 13:08:24 21° E 13:13:31 10° ESE
USA 59 Rocket 2.3 14:55:01 67° ENE 14:55:01 67° ENE 15:05:31 10° SE
ATLAS 5 CENTAUR R/B 4.5 14:59:49 20° SSE 14:59:49 20° SSE 15:02:28 10° SE
USA 238 DEB 4.4 15:19:58 45° E 15:19:58 45° E 15:24:38 10° ENE
USA 238 4.4 15:20:01 45° E 15:20:01 45° E 15:24:41 10° ENE
SL-16 R/B 3.4 15:33:04 10° SSE 15:37:08 43° SSE 15:37:08 43° SSE
BREEZE M DEB (TANK) 4.2 15:47:48 40° NE 15:47:48 40° NE 15:54:09 10° ENE
Cosmos 1697 Rocket 4.4 16:00:10 23° S 16:00:10 23° S 16:02:28 10° SSE
Cosmos 1980 Rocket 3.1 16:05:00 40° SSE 16:05:00 40° SSE 16:08:36 10° SSE
Cosmos 2369 4.1 16:09:32 56° SSE 16:09:32 56° SSE 16:14:04 10° SSE
Lacrosse 5 3.1 16:09:34 34° SSE 16:09:34 34° SSE 16:13:09 10° ESE
Cosmos 2227 4.2 16:11:06 77° E 16:11:06 77° E 16:16:36 10° NNE
Lacrosse 4 Rocket 4.0 16:19:26 13° SSE 16:19:26 13° SSE 16:19:59 10° SSE
Magion-5 4.2 16:19:04 46° S 16:19:04 46° S 16:22:38 10° SE
Cosmos 44 Rocket 3.6 16:20:59 60° ESE 16:20:59 60° ESE 16:25:02 10° SE
Cosmos 2263 Rocket 4.4 16:25:28 12° N 16:25:28 12° N 16:25:52 10° N
Cosmos 841 Rocket 3.9 16:22:08 55° S 16:22:08 55° S 16:26:19 10° SSE
ATLAS 3B R/B 4.0 16:24:20 22° SSW 16:25:22 22° S 16:30:12 10° SE
Gbstr 26 Del rocket 3.5 16:26:59 61° SE 16:26:59 61° SE 16:31:44 10° E
SL-16 R/B 2.9 16:24:35 10° N 16:30:06 54° ENE 16:35:40 10° SE
Nadezhda 3 Rocket 3.8 16:26:01 10° NNW 16:32:17 80° W 16:38:35 10° S
Cosmos 1844 3.9 16:38:39 32° SSW 16:41:18 69° ESE 16:46:53 10° NE
ATLAS 5 CENTAUR R/B 2.4 16:41:58 59° SSW 16:42:40 73° SE 16:52:31 10° NE
ATLAS 5 CENTAUR R/B 3.5 16:40:38 23° SSW 16:43:31 33° SSE 16:48:23 10° E
Cosmos 1814 Rocket 4.4 16:39:10 10° N 16:44:29 64° ENE 16:49:51 10° SSE
Cosmos 2237 4.4 16:39:45 14° NNW 16:44:38 74° ENE 16:50:24 10° SSE
USA 59 Rocket 2.3 16:41:38 38° W 16:45:58 58° SW 16:56:19 10° SE
Cosmos 1844 Rocket 2.6 16:48:54 33° SSW 16:51:40 89° ESE 16:57:23 10° NNE
Cosmos 1892 Rocket 3.5 16:49:43 33° S 16:51:44 85° E 16:56:08 10° N
PSLV R/B 3.4 16:48:24 10° N 16:52:27 68° NW 16:52:27 68° NW
Cosmos 1461 3.1 16:53:28 58° NNW 16:53:28 58° NNW 16:57:25 10° NNE
Cosmos 2360 Rocket 3.4 16:50:22 10° N 16:55:40 43° ENE 17:01:01 10° SE
Cosmos 1455 Rocket 3.3 16:53:16 10° N 16:57:44 72° E 17:02:17 10° SSE
USA 234 4.0 16:55:15 10° ESE 17:01:43 52° NE 17:08:07 10° NNW
CORIOLIS 4.1 16:58:33 10° NNE 17:03:57 89° WNW 17:09:24 10° SSW
USA 238 DEB 3.9 17:07:27 35° W 17:09:11 42° WNW 17:14:58 10° N
USA 238 3.9 17:07:29 35° W 17:09:15 43° WNW 17:15:03 10° N
Meteor 1-31 Rocket 3.5 17:06:05 10° NNE 17:09:44 52° ESE 17:13:27 10° S
Cosmos 1867 3.5 17:07:58 36° SW 17:10:08 70° NW 17:15:29 10° NNE
Cosmos 2278 3.7 17:06:54 21° NW 17:10:42 65° WSW 17:16:25 10° SSE
SMAP 3.0 17:13:35 10° N 17:18:15 66° WNW 17:22:51 11° SSW
Geosat 4.4 17:13:58 10° SE 17:19:02 66° ENE 17:24:02 10° NNW
Cosmos 2333 Rocket 2.9 17:14:13 10° N 17:19:52 57° ENE 17:25:34 10° SE
SL-16 R/B 3.6 17:17:29 10° S 17:22:13 24° SW 17:22:13 24° SW
CZ-2C R/B 2.6 17:19:45 10° NNE 17:23:23 88° ESE 17:26:40 13° SSW
ISS -2.7 17:23:00 23° NNW 17:24:42 43° NNE 17:27:58 10° ESE
Timation 2 Rocket 4.1 17:19:25 14° SSW 17:25:15 84° WNW 17:32:05 10° NNE
USA 276 2.8 17:26:23 30° NNW 17:27:31 47° NNE 17:30:32 10° E
Cosmos 1934 Rocket 4.2 17:22:18 10° SSW 17:28:02 42° W 17:33:40 10° NNW
USA 305 3.2 17:28:19 17° NW 17:31:10 57° NE 17:35:02 10° ESE
Cosmos 2322 Rocket 2.2 17:25:39 10° NNW 17:31:24 86° WSW 17:37:13 10° SSE
Okean 1 Rocket 4.4 17:33:04 22° SW 17:33:04 22° SW 17:35:28 10° SSW
Helios 1B rocket 2.2 17:29:39 10° NNE 17:33:36 85° WNW 17:37:36 10° SSW
Okean 1-7 Rocket 4.4 17:32:36 10° S 17:37:03 55° ESE 17:41:29 10° NNE
Cosmos 1606 3.1 17:33:48 10° N 17:37:24 63° E 17:41:05 10° SSE
Cosmos 1943 Rocket 4.2 17:34:19 10° S 17:38:25 20° SE 17:42:30 10° E
Cosmos 1626 Rocket 3.5 17:34:18 10° S 17:38:43 88° ESE 17:43:08 10° N
Iridium 4 Rocket 3.4 17:36:44 10° N 17:41:19 80° E 17:46:24 10° S
Meteor 2-3 Rocket 3.8 17:38:59 10° S 17:44:42 81° ESE 17:50:20 10° NNE
Blok-2BL 3.8 17:45:32 27° N 17:45:32 27° N 17:46:36 10° NNE
Cosmos 1980 Rocket 3.6 17:46:47 18° SW 17:47:58 19° SW 17:51:53 10° S
CZ-4B R/B 3.7 17:44:22 10° N 17:47:59 58° W 17:51:46 10° SSW
Cosmos 2278 Rocket 3.7 17:42:53 10° SSW 17:48:02 32° SE 17:53:08 10° ENE
NOSS 3-4 (A) 4.2 17:41:29 10° WNW 17:50:07 66° SW 17:58:00 10° SE
NOSS 3-4 (C) 4.2 17:41:32 10° WNW 17:50:09 66° SW 17:58:02 10° SE
JB-3 4.1 17:46:33 10° S 17:50:25 77° WSW 17:54:11 10° NNW
USA 306 2.7 17:51:15 19° ESE 17:51:15 19° ESE 17:51:44 10° ESE
Lacrosse 5 2.7 17:48:46 18° SW 17:52:13 39° SSE 17:57:03 10° E
Resurs 01 Rocket 4.4 17:51:06 10° E 17:53:05 13° SE 17:55:05 10° SSE
NOAA 6 4.1 17:48:54 10° NNE 17:54:07 84° ESE 17:59:23 10° SSW
IGS 5A 3.5 17:50:12 10° NNE 17:54:20 83° ESE 17:58:31 10° SSW
Cosmos 2058 3.5 17:50:48 10° SSW 17:54:36 35° W 17:58:21 10° NNW
Meteor 2-1 Rocket 4.2 17:50:36 10° NNW 17:56:28 75° WSW 18:02:19 10° S
Cosmos 2228 3.1 17:54:31 10° N 17:58:53 84° E 18:03:17 10° S
Cosmos 1125 Rocket 3.7 17:54:33 10° SSW 17:59:39 50° WNW 18:04:40 10° N
Cosmos 1605 Rocket 4.4 17:54:07 10° SSW 18:00:04 41° W 18:06:00 10° NNW
SKYMED 2 3.7 17:57:03 10° SSE 18:01:30 83° ENE 18:05:54 10° NNW
Cosmos 44 Rocket 4.3 17:59:40 17° WSW 18:02:12 27° SSW 18:06:16 10° SSE
Cosmos 1544 Rocket 3.6 18:00:16 10° NNW 18:04:42 63° WSW 18:09:11 10° S
USA 307 2.8 18:05:11 10° WNW 18:09:03 78° NNE 18:13:01 10° ESE
ADEOS 4.2 18:05:03 10° NNE 18:10:12 61° ESE 18:15:26 10° S
Cosmos 1271 Rocket 3.0 18:07:46 10° S 18:11:42 70° ESE 18:15:33 10° NNE
SeaSat 1 3.2 18:07:25 10° NE 18:12:14 54° SE 18:17:06 10° SSW
Okean O Rocket 4.2 18:10:21 10° E 18:13:03 16° ESE 18:15:46 10° SSE
Gbstr 26 Del rocket 3.5 18:09:15 14° WSW 18:13:23 88° NNW 18:19:20 10° ENE
Cosmos 1459 Rocket 4.0 18:07:11 10° S 18:13:27 86° W 18:19:34 10° N
SL-16 R/B 2.9 18:09:20 10° WNW 18:14:29 33° SW 18:19:40 10° SSE
Cosmos 2016 Rocket 4.4 18:09:29 10° S 18:15:46 69° ESE 18:21:54 10° NNE
USA 81 4.1 18:12:18 10° N 18:17:38 85° W 18:23:02 10° S
ATLAS 3B R/B 3.7 18:12:14 10° SW 18:17:56 33° SSE 18:23:31 10° E
Meteor 2-13 Rocket 4.4 18:12:16 10° NNW 18:18:24 73° WSW 18:24:40 10° S
Cosmos 2333 4.2 18:12:55 10° NW 18:18:43 71° WSW 18:24:33 10° SSE
CBERS 1 LM4 rocket 4.5 18:16:08 10° NNE 18:21:14 79° WNW 18:26:14 10° SSW
USA 186 4.5 18:20:57 10° ENE 18:23:17 19° ESE 18:25:35 10° SSE
CZ-4B R/B 3.7 18:22:47 10° NNE 18:26:52 53° ESE 18:30:49 10° S
ATLAS 5 CENTAUR R/B 2.1 18:22:09 10° SW 18:28:17 84° NW 18:33:07 10° NE
Resurs 1-3 4.4 18:26:51 10° NNE 18:31:08 54° ESE 18:35:29 10° S
COSMOS 2428 3.5 18:25:37 10° N 18:31:15 59° ENE 18:36:57 10° SE
YAOGAN 1 2.6 18:26:57 10° N 18:31:17 73° WNW 18:35:40 10° SSW
Cosmos 2219 Rocket 2.2 18:26:35 10° NW 18:32:18 74° WSW 18:38:03 10° SSE
Cosmos 1602 Rocket 3.9 18:28:59 10° SSW 18:33:11 44° W 18:37:18 10° NNW
Cosmos 1844 Rocket 4.2 18:31:14 10° WSW 18:34:44 17° W 18:38:13 10° NW
ADEOS Rocket 3.3 18:28:22 10° N 18:35:15 60° WNW 18:41:31 10° SSW
Cosmos 2369 Rocket 4.4 18:32:09 10° S 18:35:40 16° SSE 18:39:11 10° ESE
Cosmos 2150 Rocket 4.5 18:31:10 10° SW 18:36:14 43° WNW 18:41:10 10° N
Cosmos 2208 Rocket 4.2 18:31:59 10° NW 18:37:03 50° WSW 18:42:12 10° SSE
Cosmos 1570 Rocket 4.5 18:32:16 10° NW 18:37:20 40° WSW 18:42:26 10° SSE
Cosmos 1544 4.4 18:36:42 10° SW 18:38:14 14° W 18:39:45 10° WNW
USA 59 Rocket 2.8 18:28:52 10° WSW 18:38:40 38° S 18:47:45 10° ESE
Cosmos 2360 Rocket 2.7 18:34:25 10° WNW 18:39:44 39° SW 18:45:05 10° SSE
Cosmos 1758 Rocket 4.3 18:36:06 10° SSW 18:40:06 34° W 18:44:05 10° NNW
Meteor PRIRODA 3.4 18:36:54 10° N 18:40:19 71° WNW 18:43:49 10° SSW
